This demonstration page uses our WeatherBlox Daily Observations layout. Learn more.

39.01783, -85.05884

Hourly Observations for November 2, 2019

Temp ( °F °C ) Dew Point ( °F °C ) Humidity (%) Winds ( mph kmh ) Pressure ( in mb ) Visibility ( mi km ) Precip ( " mm )
12:52 am 00:52 Clear 34 1.1 26 -3.3 73 73 SSW 8 13 30.24 1024 10 16.0934 0 0
1:52 am 01:52 Clear 32 0 26 -3.3 79 79 S 5 7 30.23 1024 10 16.0934 0 0
2:52 am 02:52 Clear 32 0 25 -3.9 75 75 Calm 30.22 1024 10 16.0934 0 0
3:52 am 03:52 Partly Cloudy 30 -1.1 27 -2.8 88 88 S 5 7 30.22 1023 10 16.0934 0 0
4:52 am 04:52 Mostly Cloudy 32 0 27 -2.8 82 82 SSW 3 6 30.2 1023 10 16.0934 0 0
5:52 am 05:52 Partly Cloudy 30 -1.1 25 -3.9 82 82 S 7 11 30.19 1022 10 16.0934 0 0
6:52 am 06:52 Mostly Clear 32 0 26 -3.3 79 79 SSW 7 11 30.19 1022 10 16.0934 0 0
7:52 am 07:52 Clear 31 -0.6 26 -3.3 82 82 S 9 15 30.17 1022 10 16.0934 0 0
8:52 am 08:52 Sunny 33 0.6 27 -2.8 78 78 SSW 8 13 30.17 1022 10 16.0934 0 0
9:52 am 09:52 Mostly Sunny 38 3.3 29 -1.7 70 70 SW 9 15 30.18 1022 10 16.0934 0 0
10:52 am 10:52 Mostly Sunny 41 5 30 -1.1 65 65 WSW 10 17 30.18 1022 10 16.0934 0 0
11:52 am 11:52 Partly Cloudy 44 6.7 31 -0.6 60 60 W 14 22 30.18 1022 10 16.0934 0 0
12:52 pm 12:52 Mostly Cloudy 46 7.8 32 0 58 58 W 7 11 30.18 1022 10 16.0934 0 0
1:52 pm 13:52 Mostly Cloudy 47 8.3 33 0.6 59 59 W 12 19 30.17 1022 10 16.0934 0 0
2:52 pm 14:52 Mostly Cloudy 51 10.6 32 0 48 48 W 13 20 30.15 1021 10 16.0934 0 0
3:52 pm 15:52 Mostly Cloudy 49 9.4 30 -1.1 48 48 WNW 16 26 30.16 1021 10 16.0934 0 0
4:52 pm 16:52 Mostly Cloudy 51 10.6 29 -1.7 43 43 W 13 20 30.16 1021 10 16.0934 0 0
5:52 pm 17:52 Mostly Cloudy 49 9.4 30 -1.1 48 48 W 8 13 30.16 1022 10 16.0934 0 0
6:52 pm 18:52 Mostly Cloudy 48 8.9 30 -1.1 50 50 W 15 24 30.18 1022 10 16.0934 0 0
7:52 pm 19:52 Partly Cloudy 45 7.2 29 -1.7 54 54 NW 9 15 30.21 1023 10 16.0934 0 0
8:52 pm 20:52 Partly Cloudy 43 6.1 28 -2.2 56 56 WNW 8 13 30.21 1023 10 16.0934 0 0
9:52 pm 21:52 Mostly Clear 39 3.9 27 -2.8 62 62 W 6 9 30.21 1023 10 16.0934 0 0
10:52 pm 22:52 Partly Cloudy 37 2.8 27 -2.8 67 67 W 6 9 30.23 1024 10 16.0934 0 0
11:52 pm 23:52 Mostly Clear 38 3.3 27 -2.8 65 65 W 3 6 30.23 1024 10 16.0934 0 0

Powered by AerisWeather